#timestamp,LO_Frequency,Hit,StdDev 
1536840015.5,286047004.2,N
1536840035.3,286047000.5,N
1536840055.2,286047002.1,N
1536840075.0,286047004.4,N
1536840075.9,286047004.4,N
1536840095.8,286046999.7,N
1536840115.6,286047004.3,N
1536840135.4,286047002.6,N
1536840155.3,286047001.7,N
1536840175.1,286047003.6,N
1536840176.0,286047003.6,N
1536840195.8,286047004.4,N
1536840215.7,286047002.8,N
1536840235.5,286047002.6,N
1536840285.4,286047001.0,E
1536840295.3,286047000.3,N
1536840315.1,286046999.7,P
1536840335.9,286047002.0,P
1536840355.7,286047004.9,Y
1536840375.6,286047003.2,P
1536840395.4,286047004.4,P
1536840415.2,286046999.8,N
1536840435.1,286047000.2,N
1536840436.0,286047000.2,N
1536840455.8,286047003.0,N
1536840475.6,286047003.3,N
1536840495.5,286047002.9,N
1536840515.3,286047004.7,N
1536840535.2,286047007.6,Y
1536840555.9,286047003.7,P
1536840575.7,286047003.0,P
1536840595.6,286047002.9,P
1536840615.4,286047005.1,Y
1536840635.2,286047000.4,P
1536840655.1,286047000.6,N
1536840656.0,286047000.6,N
1536840675.8,286047000.5,N
1536840695.7,286047000.5,N
1536840715.5,286047002.3,N
1536840735.3,286047001.5,N
1536840755.2,286047000.8,N
1536840775.9,286046998.7,N
1536840795.7,286046996.5,Y
1536840815.6,286046998.3,P
1536840835.4,286046999.3,N
1536840855.3,286046999.3,N
1536840875.1,286046999.0,N
1536840876.0,286046999.0,N
1536840895.8,286046998.1,N
1536840915.7,286047001.0,N
1536840935.5,286047001.1,N
1536840955.3,286047000.0,N
1536840975.2,286047001.6,N
1536840995.0,286047001.1,N
1536840995.9,286047001.1,N
1536841015.8,286047001.1,N
1536841035.6,286047000.9,N
1536841055.4,286047000.0,N
1536841075.3,286047002.7,N
1536841095.1,286047001.5,N
1536841096.0,286047001.5,N
1536841115.8,286047000.7,N
1536841135.7,286047000.7,N
1536841155.5,286047000.6,N
1536841175.3,286046998.5,N
1536841195.2,286046996.8,N
1536841215.0,286046998.9,N
1536841215.9,286046998.9,N
1536841235.8,286047000.6,N
1536841255.6,286047000.8,N
1536841275.4,286046999.6,N
1536841295.3,286046997.0,N
1536841315.1,286046997.0,N
1536841335.8,286046999.4,N
1536841355.7,286046999.5,N
1536841375.5,286046997.1,N
1536841395.4,286046996.5,N
1536841415.2,286046998.8,N
1536841435.0,286047000.9,N
1536841435.9,286047000.9,N
1536841455.8,286047000.8,N
1536841475.6,286047000.6,N
1536841495.4,286046999.6,N
1536841515.3,286046996.9,N
1536841535.1,286046997.7,N
1536841555.9,286046998.3,N
1536841575.7,286046998.9,N
1536841595.5,286047000.4,N
1536841615.4,286047000.1,N
1536841635.2,286047002.3,N
1536841655.0,286047001.9,N
1536841656.0,286047001.9,N
1536841675.8,286047001.6,N
1536841695.6,286047000.1,N
1536841715.5,286047004.2,N
1536841735.3,286046999.7,N
1536841755.1,286047002.3,N
1536841775.9,286047000.6,N
1536841795.7,286046998.9,N
1536841815.5,286046997.8,N
1536841835.4,286046997.9,N
1536841855.2,286046996.8,N
1536841875.1,286047000.1,N
1536841876.0,286047000.1,N
1536841895.8,286046998.6,N
1536841915.6,286046999.5,N
1536841935.5,286046999.1,N
1536841955.3,286046996.6,N
1536841975.1,286046998.8,N
1536841995.9,286047001.0,N
1536842015.7,286047000.3,N
1536842035.6,286047002.8,N
1536842055.4,286046999.7,N
1536842075.2,286047002.3,N
1536842095.1,286047000.6,N
1536842096.0,286047000.6,N
1536842115.8,286047000.5,N
1536842135.6,286046998.1,N
1536842155.5,286047000.2,N
1536842175.3,286046999.8,N
1536842195.2,286047003.9,N
1536842215.9,286047002.5,N
1536842235.7,286047004.1,N
1536842255.6,286047001.8,N
1536842275.4,286047002.9,N
1536842295.2,286047004.0,N
1536842315.1,286047001.8,N
1536842316.0,286047001.8,N
1536842335.8,286047002.1,N
1536842355.7,286047003.1,N
1536842375.5,286047005.7,N
1536842395.3,286047003.5,N
1536842415.2,286047003.2,N
1536842435.0,286047005.8,N
1536842435.9,286047005.8,N
1536842455.7,286047004.5,N
1536842475.6,286047006.8,N
1536842495.4,286047004.7,N
1536842515.3,286047004.1,N
1536842535.1,286047000.1,N
1536842536.0,286047000.1,N
1536842555.8,286047000.5,N
1536842575.7,286047002.4,N
1536842595.5,286047004.4,N
1536842615.3,286047003.9,N
1536842635.2,286047003.7,N
1536842655.0,286047005.8,N
1536842655.9,286047005.8,N
1536842675.8,286047005.4,N
1536842695.6,286047001.4,N
1536842715.4,286047002.4,N
1536842735.3,286047002.2,N
1536842755.1,286047000.2,N
1536842775.8,286047002.4,N
1536842795.7,286046999.9,N
1536842815.5,286047002.6,N
1536842835.3,286047001.7,N
1536842855.2,286047001.3,N
1536842875.0,286047002.3,N
1536842875.9,286047002.3,N
1536842895.8,286047000.0,N
1536842915.6,286047000.8,N
1536842935.4,286046999.7,N
1536842955.3,286047002.6,N
1536842975.1,286047001.0,N
1536842995.8,286046999.9,N
1536843015.7,286047001.4,N
1536843035.5,286047001.8,N
1536843055.4,286047001.9,N
1536843075.2,286047003.2,N
1536843095.0,286047004.4,N
1536843095.9,286047004.4,N
1536843115.8,286047001.6,N
1536843135.6,286047003.9,N
1536843155.4,286047004.3,N
1536843175.3,286047003.6,N
1536843195.1,286047003.2,N
1536843215.9,286047003.1,N
1536843235.7,286047004.1,N
1536843255.5,286047003.6,N
1536843275.4,286047004.0,N
1536843295.2,286047003.4,N
1536843315.0,286047005.1,Y
1536843316.0,286047005.1,P
1536843335.8,286047004.2,N
1536843355.6,286047001.8,N
1536843375.5,286047001.9,N
1536843395.3,286047002.6,N
1536843415.1,286047000.2,N
1536843435.9,286047000.4,N
1536843455.7,286047002.3,N
1536843475.5,286047003.3,N
1536843495.4,286047004.2,N
1536843515.2,286047002.5,N
1536843535.1,286047000.2,N
1536843536.0,286047000.2,N
1536843555.8,286047002.7,N
1536843575.6,286047002.7,N
1536843595.5,286047002.4,N
